CW5255 Weather Reports


Display with metric or nautical units.
time (UTC)temp
F
wind
direction
speed
MPH
gust
MPH
rain 1hr
in
rain 24hr
in
rain mn
in
humidity
%
barometer
mb
20180821215659 78 5 2.0 9.0 0.03 0.36 0.36 89 1012.4
20180821215153 78 46 1.0 7.0 0.03 0.36 0.36 90 1012.1
20180821214748 78 104 0.0 7.0 0.03 0.36 0.36 90 1012.1
20180821213704 78 183 3.0 12.0 0.03 0.36 0.36 90 1012.0
20180821213220 79 139 2.0 12.0 0.03 0.36 0.36 88 1012.1
20180821212714 79 167 3.0 9.0 0.01 0.34 0.34 88 1012.2
20180821212145 79 135 3.0 9.0 0.00 0.33 0.33 88 1012.1
20180821211645 78 83 3.0 6.0 0.00 0.33 0.33 90 1012.2
20180821211146 78 119 5.0 6.0 0.00 0.33 0.33 90 1012.1
20180821210650 78 128 3.0 6.0 0.00 0.33 0.33 90 1012.2
20180821210148 78 241 3.0 9.0 0.00 0.33 0.33 89 1012.2
20180821205649 80 109 3.0 9.0 0.00 0.33 0.33 87 1012.4
20180821205155 81 106 2.0 9.0 0.00 0.33 0.33 83 1012.2
20180821204700 80 157 8.0 8.0 0.00 0.33 0.33 85 1012.2
20180821204150 80 153 4.0 8.0 0.00 0.33 0.33 87 1012.2
20180821203744 80 115 4.0 8.0 0.00 0.33 0.33 86 1012.3
20180821202732 80 123 3.0 9.0 0.00 0.33 0.33 84 1012.5
20180821201654 81 194 6.0 13.0 0.00 0.33 0.33 83 1012.7
20180821200703 80 101 1.0 9.0 0.00 0.33 0.33 83 1012.8
20180821200204 80 165 2.0 9.0 0.00 0.33 0.33 82 1013.0
20180821194702 80 65 5.0 14.0 0.00 0.33 0.33 83 1013.0
20180821194210 81 157 5.0 16.0 0.00 0.33 0.33 82 1012.9
20180821193709 82 180 2.0 16.0 0.00 0.33 0.33 79 1013.2
20180821193151 82 175 9.0 12.0 0.00 0.33 0.33 79 1013.2
20180821192726 82 146 2.0 12.0 0.00 0.33 0.33 80 1013.3
20180821192144 83 176 7.0 12.0 0.00 0.33 0.33 77 1013.3
20180821191208 81 182 8.0 11.0 0.00 0.33 0.33 80 1013.3
20180821190653 82 157 2.0 12.0 0.00 0.33 0.33 79 1013.5
20180821190143 83 162 8.0 12.0 0.00 0.33 0.33 78 1013.5
20180821185644 82 143 4.0 7.0 0.00 0.33 0.33 78 1013.6
20180821185159 81 98 4.0 7.0 0.00 0.33 0.33 81 1013.7
20180821184642 82 184 3.0 7.0 0.00 0.33 0.33 81 1013.9
20180821184208 82 153 2.0 8.0 0.00 0.33 0.33 78 1013.9
20180821183712 82 120 1.0 9.0 0.00 0.33 0.33 80 1013.9
20180821183146 82 136 1.0 9.0 0.00 0.33 0.33 79 1014.0
20180821182645 82 131 5.0 7.0 0.00 0.33 0.33 80 1014.1
20180821182208 82 147 4.0 10.0 0.00 0.33 0.33 82 1014.3
20180821181708 82 163 6.0 10.0 0.00 0.33 0.33 80 1014.2
20180821181208 81 154 10.0 11.0 0.00 0.33 0.33 81 1014.3
20180821180145 81 115 3.0 12.0 0.00 0.33 0.33 82 1014.3
20180821175712 82 122 2.0 13.0 0.00 0.33 0.33 81 1014.5
20180821175243 83 213 2.0 13.0 0.00 0.33 0.33 81 1014.7
20180821174707 83 200 4.0 7.0 0.00 0.33 0.33 80 1014.7
20180821173701 81 160 4.0 10.0 0.00 0.33 0.33 80 1014.9
20180821173214 81 134 4.0 9.0 0.00 0.33 0.33 85 1014.9
20180821172737 80 99 6.0 6.0 0.00 0.33 0.33 84 1015.0
20180821171727 82 167 3.0 8.0 0.00 0.33 0.33 81 1015.3
20180821170655 82 160 6.0 7.0 0.00 0.33 0.33 82 1015.4
20180821170158 80 159 5.0 8.0 0.00 0.33 0.33 83 1015.4
20180821165744 80 189 3.0 8.0 0.00 0.33 0.33 85 1015.5
20180821165230 79 192 2.0 7.0 0.00 0.33 0.33 85 1015.5
20180821164705 79 85 2.0 7.0 0.00 0.33 0.33 86 1015.6
20180821164142 79 172 3.0 7.0 0.00 0.33 0.33 85 1015.8
20180821163706 80 167 1.0 7.0 0.00 0.33 0.33 84 1016.0
20180821163204 81 248 4.0 6.0 0.00 0.33 0.33 84 1016.0
20180821162705 80 167 3.0 6.0 0.00 0.33 0.33 87 1016.1
20180821161704 77 198 1.0 4.0 0.00 0.33 0.33 87 1016.1
20180821161207 77 214 0.0 4.0 0.00 0.33 0.33 90 1016.3
20180821160704 77 190 1.0 11.0 0.00 0.33 0.33 89 1016.3
20180821160204 77 196 1.0 11.0 0.00 0.33 0.33 88 1016.4
20180821155704 77 227 4.0 5.0 0.00 0.33 0.33 87 1016.6
20180821155156 78 140 1.0 6.0 0.00 0.33 0.33 87 1016.5
20180821154703 78 207 3.0 6.0 0.00 0.33 0.33 86 1016.6
20180821154203 78 194 3.0 8.0 0.00 0.33 0.33 86 1016.6
20180821153643 79 184 2.0 9.0 0.00 0.33 0.33 85 1016.8
20180821153144 79 107 3.0 9.0 0.00 0.33 0.33 84 1016.8
20180821152735 78 188 2.0 7.0 0.00 0.33 0.33 87 1016.7
20180821152136 77 200 6.0 7.0 0.00 0.33 0.33 87 1016.9
20180821151703 77 177 3.0 7.0 0.00 0.33 0.33 90 1017.0
20180821151203 76 194 3.0 7.0 0.00 0.33 0.33 90 1016.9
20180821150738 76 150 2.0 8.0 0.00 0.33 0.33 91 1017.0
20180821150212 75 203 6.0 10.0 0.00 0.33 0.33 91 1017.1
20180821145702 75 198 6.0 10.0 0.00 0.33 0.33 91 1017.1
20180821145208 75 192 4.0 9.0 0.00 0.33 0.33 90 1017.2
20180821144725 75 188 3.0 8.0 0.00 0.33 0.33 90 1017.1
20180821144208 75 115 2.0 8.0 0.00 0.33 0.33 91 1017.2
20180821143730 74 132 3.0 7.0 0.00 0.33 0.33 92 1017.3
20180821143203 74 158 2.0 6.0 0.00 0.33 0.33 92 1017.4
20180821142718 74 198 6.0 7.0 0.00 0.33 0.33 92 1017.4
20180821142213 74 192 1.0 10.0 0.00 0.33 0.33 92 1017.5
20180821141701 74 190 6.0 10.0 0.00 0.33 0.33 92 1017.6
20180821141205 74 116 4.0 7.0 0.00 0.33 0.33 92 1017.6
20180821140233 74 169 4.0 7.0 0.00 0.33 0.33 92 1017.6
20180821135702 74 113 1.0 6.0 0.00 0.33 0.33 92 1017.6
20180821135200 74 147 2.0 7.0 0.00 0.33 0.33 93 1017.7
20180821134700 74 149 5.0 7.0 0.00 0.33 0.33 92 1017.8
20180821134221 74 138 7.0 7.0 0.00 0.33 0.33 93 1017.7
20180821133203 73 163 2.0 8.0 0.00 0.33 0.33 94 1017.8
20180821132714 73 144 2.0 6.0 0.00 0.33 0.33 94 1017.9
20180821132200 73 151 2.0 8.0 0.00 0.33 0.33 95 1018.0
20180821131159 72 162 8.0 9.0 0.00 0.33 0.33 95 1017.9
20180821130700 72 159 5.0 9.0 0.00 0.33 0.33 95 1017.9
20180821130158 72 142 2.0 8.0 0.00 0.33 0.33 95 1018.0
20180821125710 71 144 2.0 8.0 0.00 0.33 0.33 95 1018.0
20180821125204 71 117 4.0 8.0 0.00 0.33 0.33 96 1018.0
20180821124718 71 172 2.0 7.0 0.00 0.33 0.33 96 1018.0
20180821124158 71 141 2.0 6.0 0.00 0.33 0.33 96 1018.0
20180821123658 71 146 1.0 8.0 0.00 0.33 0.33 96 1018.1
20180821123252 71 150 6.0 8.0 0.00 0.33 0.33 96 1018.1
20180821122204 70 157 2.0 8.0 0.00 0.33 0.33 96 1018.1
20180821121710 70 119 3.0 8.0 0.00 0.33 0.33 96 1018.2
20180821121157 70 115 3.0 6.0 0.00 0.33 0.33 96 1018.1
20180821120657 70 136 0.0 8.0 0.00 0.33 0.33 96 1018.3
20180821120200 70 95 3.0 8.0 0.00 0.33 0.33 96 1018.3
20180821115656 70 177 3.0 10.0 0.00 0.33 0.33 96 1018.4
20180821115156 70 147 1.0 10.0 0.00 0.33 0.33 96 1018.4
20180821114704 70 182 3.0 8.0 0.00 0.33 0.33 96 1018.3
20180821114156 70 186 3.0 8.0 0.00 0.33 0.33 96 1018.4
20180821113656 70 144 8.0 8.0 0.00 0.33 0.33 96 1018.4
20180821112727 70 145 2.0 8.0 0.01 0.33 0.33 96 1018.3
20180821105154 70 184 2.0 7.0 0.17 0.33 0.33 96 1018.2
20180821104700 70 160 6.0 7.0 0.17 0.33 0.33 96 1018.2
20180821104340 70 182 4.0 8.0 0.17 0.33 0.33 96 1018.2
20180821103655 70 125 0.0 9.0 0.17 0.33 0.33 96 1018.2
20180821103154 70 161 4.0 9.0 0.17 0.33 0.33 96 1018.2
20180821102653 70 123 5.0 9.0 0.16 0.32 0.32 96 1018.2
20180821101719 70 181 2.0 7.0 0.14 0.30 0.30 96 1018.2
20180821101223 70 157 3.0 7.0 0.13 0.28 0.28 96 1018.2
20180821100653 70 136 4.0 8.0 0.05 0.20 0.20 96 1018.3
20180821100153 70 126 4.0 9.0 0.01 0.16 0.16 96 1018.2
20180821095653 70 159 6.0 9.0 0.01 0.16 0.16 96 1018.2
20180821095152 70 226 1.0 9.0 0.01 0.16 0.16 96 1018.2
20180821094653 70 186 2.0 9.0 0.01 0.16 0.16 96 1018.2
20180821094152 70 167 5.0 9.0 0.01 0.16 0.16 96 1018.2
20180821093652 70 204 1.0 10.0 0.01 0.16 0.16 96 1018.2
20180821093152 70 175 2.0 10.0 0.01 0.16 0.16 96 1018.1
20180821092652 70 151 4.0 7.0 0.01 0.16 0.16 96 1018.1
20180821092152 70 139 1.0 7.0 0.01 0.16 0.16 96 1018.1
20180821091658 70 182 2.0 9.0 0.01 0.16 0.16 96 1018.2
20180821091152 70 77 1.0 9.0 0.00 0.15 0.15 96 1018.2
20180821090651 70 169 9.0 9.0 0.00 0.15 0.15 96 1018.2
20180821090151 70 188 2.0 10.0 0.00 0.15 0.15 96 1018.2
20180821085651 70 141 1.0 10.0 0.02 0.15 0.15 96 1018.2
20180821085151 70 186 3.0 8.0 0.05 0.15 0.15 96 1018.2
20180821084651 70 217 3.0 10.0 0.09 0.15 0.15 96 1018.2
20180821084151 70 161 2.0 10.0 0.11 0.15 0.15 96 1018.3
20180821083651 70 183 9.0 10.0 0.11 0.15 0.15 96 1018.2
20180821083150 70 134 3.0 10.0 0.11 0.15 0.15 96 1018.2
20180821082650 70 171 2.0 10.0 0.11 0.15 0.15 96 1018.2
20180821082150 70 148 2.0 10.0 0.11 0.15 0.15 96 1018.1
20180821081650 70 161 5.0 10.0 0.11 0.15 0.15 96 1018.2
20180821081150 70 173 3.0 9.0 0.11 0.15 0.15 96 1018.2
20180821080649 70 128 7.0 9.0 0.12 0.15 0.15 96 1018.2
20180821080149 70 175 1.0 9.0 0.12 0.15 0.15 96 1018.3
20180821075650 70 145 1.0 8.0 0.10 0.13 0.13 96 1018.4
20180821075149 70 153 2.0 9.0 0.07 0.10 0.10 96 1018.4
20180821074649 70 104 8.0 9.0 0.04 0.06 0.06 96 1018.5
20180821074149 70 185 4.0 9.0 0.02 0.04 0.04 96 1018.4
20180821073649 70 157 2.0 9.0 0.02 0.04 0.04 96 1018.6
20180821073150 70 88 2.0 9.0 0.02 0.04 0.04 95 1018.6
20180821072648 70 144 0.0 7.0 0.02 0.04 0.04 95 1018.6
20180821072148 70 136 3.0 7.0 0.02 0.04 0.04 95 1018.7
20180821071648 70 146 2.0 7.0 0.02 0.04 0.04 95 1018.8
20180821071148 70 153 2.0 8.0 0.02 0.04 0.04 95 1018.7
20180821070648 70 140 3.0 8.0 0.01 0.03 0.03 95 1018.9
20180821070147 70 157 2.0 6.0 0.01 0.03 0.03 95 1018.9
20180821065648 70 149 3.0 6.0 0.01 0.03 0.03 95 1019.1
20180821065147 70 149 1.0 8.0 0.01 0.03 0.03 95 1019.2
20180821064648 70 160 6.0 8.0 0.00 0.02 0.02 95 1019.2
20180821064149 70 140 3.0 7.0 0.00 0.02 0.02 95 1019.2
20180821063647 70 121 4.0 8.0 0.00 0.02 0.02 95 1019.3
20180821063147 70 145 2.0 8.0 0.00 0.02 0.02 95 1019.3
20180821062647 70 147 1.0 8.0 0.00 0.02 0.02 95 1019.3
20180821062146 70 157 2.0 8.0 0.00 0.02 0.02 95 1019.3
20180821061647 70 175 3.0 7.0 0.00 0.02 0.02 95 1019.3
20180821061147 70 110 1.0 8.0 0.00 0.02 0.02 95 1019.4
20180821060648 70 159 5.0 8.0 0.00 0.02 0.02 95 1019.5
20180821060146 70 144 5.0 8.0 0.00 0.02 0.02 95 1019.6
20180821055646 70 90 6.0 10.0 0.01 0.02 0.02 95 1019.6
20180821055226 70 161 5.0 10.0 0.01 0.02 0.02 95 1019.5
20180821054645 70 120 2.0 6.0 0.02 0.02 0.02 95 1019.6
20180821054155 70 145 3.0 6.0 0.02 0.02 0.02 95 1019.7
20180821053655 70 159 1.0 6.0 0.02 0.02 0.02 95 1019.7
20180821050644 70 155 3.0 7.0 0.02 0.02 0.02 94 1020.0
20180821050144 70 148 2.0 7.0 0.02 0.02 0.02 94 1020.0
20180821045644 70 140 7.0 7.0 0.01 0.01 0.01 94 1020.0
20180821045147 71 153 2.0 7.0 0.01 0.01 0.01 93 1020.1
20180821044643 71 205 4.0 8.0 0.00 0.00 0.00 93 1020.1
20180821044144 71 161 2.0 9.0 0.00 0.00 0.00 92 1020.1
20180821043723 71 144 4.0 9.0 0.00 0.00 0.00 92 1020.1
20180821043143 71 155 7.0 8.0 0.00 0.00 0.00 92 1020.1
20180821042644 71 119 1.0 8.0 0.00 0.00 0.00 92 1020.2
20180821042143 71 186 4.0 7.0 0.00 0.00 0.00 91 1020.2
20180821033641 71 115 0.0 7.0 0.00 0.00 0.00 92 1020.2
20180821033141 71 146 4.0 7.0 0.00 0.00 0.00 92 1020.3
20180821032641 71 138 2.0 4.0 0.00 0.00 0.00 92 1020.2
20180821032141 71 118 2.0 4.0 0.00 0.00 0.00 92 1020.3
20180821031641 71 117 2.0 7.0 0.00 0.00 0.00 91 1020.3
20180821031141 71 142 2.0 7.0 0.00 0.00 0.00 91 1020.3
20180821030640 71 109 3.0 6.0 0.00 0.00 0.00 91 1020.4
20180821030140 71 134 4.0 6.0 0.00 0.00 0.00 91 1020.3
20180821025640 71 124 2.0 4.0 0.00 0.00 0.00 91 1020.4
20180821025140 71 130 1.0 5.0 0.00 0.00 0.00 91 1020.4
20180821024640 71 167 3.0 5.0 0.00 0.00 0.00 91 1020.4
20180821024140 71 124 2.0 9.0 0.00 0.00 0.00 91 1020.3
20180821023640 71 141 4.0 9.0 0.00 0.00 0.00 91 1020.3
20180821023140 71 117 4.0 6.0 0.00 0.00 0.00 91 1020.3
20180821022639 71 136 2.0 6.0 0.00 0.00 0.00 91 1020.3
20180821022140 71 135 3.0 5.0 0.00 0.00 0.00 91 1020.4
20180821021639 71 132 1.0 5.0 0.00 0.00 0.00 91 1020.3
20180821021139 71 172 3.0 6.0 0.00 0.00 0.00 91 1020.4
20180821020639 71 152 1.0 6.0 0.00 0.00 0.00 91 1020.3
20180821020209 71 113 3.0 6.0 0.00 0.00 0.00 91 1020.3
20180821015639 71 144 2.0 6.0 0.00 0.00 0.00 91 1020.4
20180821015138 71 138 2.0 6.0 0.00 0.00 0.00 91 1020.4
20180821014638 72 131 1.0 5.0 0.00 0.00 0.00 91 1020.4
20180821014139 71 116 3.0 5.0 0.00 0.00 0.00 90 1020.3
20180821013638 71 130 2.0 6.0 0.00 0.00 0.00 91 1020.3
20180821013138 71 94 4.0 6.0 0.00 0.00 0.00 91 1020.3
20180821012638 71 114 1.0 4.0 0.00 0.00 0.00 91 1020.3
20180821012137 71 117 2.0 4.0 0.00 0.00 0.00 91 1020.3
20180821011707 71 142 1.0 8.0 0.00 0.00 0.00 90 1020.2
20180821011207 72 147 2.0 8.0 0.00 0.00 0.00 90 1020.1
20180821010637 72 144 3.0 7.0 0.00 0.00 0.00 90 1020.0
20180821010137 72 118 3.0 7.0 0.00 0.00 0.00 90 1020.0
20180821005707 72 117 4.0 6.0 0.00 0.00 0.00 90 1020.0
20180821005136 72 135 3.0 4.0 0.00 0.00 0.00 90 1020.1
20180821004637 72 132 0.0 4.0 0.00 0.00 0.00 90 1020.0
20180821004206 72 129 1.0 3.0 0.00 0.00 0.00 90 1020.0
20180821003706 72 124 2.0 3.0 0.00 0.00 0.00 89 1020.0
20180821003206 72 131 0.0 5.0 0.00 0.00 0.00 89 1020.0
20180821002705 72 131 1.0 6.0 0.00 0.00 0.00 89 1020.0
20180821002205 72 137 3.0 6.0 0.00 0.00 0.00 89 1019.9
20180821001706 72 114 6.0 6.0 0.00 0.00 0.00 89 1019.8
20180821001205 72 112 1.0 6.0 0.00 0.00 0.00 89 1019.8
20180821000705 72 97 2.0 6.0 0.00 0.00 0.00 89 1019.8
20180821000206 72 112 2.0 3.0 0.00 0.00 0.00 88 1019.8
20180820235705 72 119 0.0 4.0 0.00 0.00 0.00 89 1019.7
20180820235205 73 119 1.0 4.0 0.00 0.00 0.00 88 1019.7
20180820234704 73 128 1.0 4.0 0.00 0.00 0.00 88 1019.6
20180820234204 73 128 2.0 4.0 0.00 0.00 0.00 88 1019.7
20180820233704 73 123 0.0 5.0 0.00 0.00 0.00 88 1019.7
20180820233204 73 130 2.0 6.0 0.00 0.00 0.00 88 1019.6
20180820232704 73 129 3.0 6.0 0.00 0.00 0.00 88 1019.5
20180820232204 73 157 2.0 4.0 0.00 0.00 0.00 87 1019.6
20180820231703 73 130 1.0 4.0 0.00 0.00 0.00 87 1019.7
20180820231203 73 172 2.0 5.0 0.00 0.00 0.00 87 1019.7
20180820230704 73 175 2.0 6.0 0.00 0.00 0.00 87 1019.6
20180820230203 73 153 2.0 6.0 0.00 0.00 0.00 87 1019.6
20180820225703 73 157 2.0 5.0 0.00 0.00 0.00 87 1019.6
20180820225203 73 115 1.0 5.0 0.00 0.00 0.00 86 1019.6
20180820224703 73 144 0.0 3.0 0.00 0.00 0.00 87 1019.6
20180820224203 74 139 1.0 4.0 0.00 0.00 0.00 86 1019.7
20180820223702 74 154 1.0 5.0 0.00 0.00 0.00 86 1019.7
20180820223202 74 160 1.0 6.0 0.00 0.00 0.00 86 1019.7
20180820222702 74 125 4.0 6.0 0.00 0.00 0.00 85 1019.7
20180820222202 74 175 1.0 6.0 0.00 0.00 0.00 85 1019.9
20180820221702 74 165 4.0 6.0 0.00 0.00 0.00 84 1019.8
20180820221201 74 128 4.0 6.0 0.00 0.00 0.00 85 1019.8
20180820220702 74 151 2.0 5.0 0.00 0.00 0.00 84 1019.9